RH
22 22 23 23 24 24 23 21 21 25 28 29 29 29 32 38 42 43 44 47 48 50 52 55 55 52 51 50 50 51 52 52 52 52 52 54 57 59 59 57 55 54 50 49 51 56 60 63 64 64 63 63 63 60 59 60 61 62 64 66 67 66 67 69 67 66 66 67 68 69 69 69 68 67 67 65 63 62 60 59 59 59 60 60 60
21 20 22 24 25 25 23 23 24 28 31 32 31 32 35 42 46 46 47 49 50 52 55 57 56 55 55 56 58 59 59 56 54 53 54 55 55 57 61 60 58 58 57 53 53 58 61 60 62 64 64 64 64 62 61 61 62 62 60 62 64 64 67 71 71 71 71 70 69 68 69 68 65 64 64 62 60 59 59 59 59 60 60 60 61
19 19 21 23 25 25 24 25 28 32 34 36 35 35 39 45 47 46 47 48 49 52 56 59 60 60 60 61 64 64 63 60 56 55 56 56 57 58 61 63 62 60 60 58 56 58 60 60 61 63 62 63 63 63 64 64 64 63 59 59 61 61 66 72 73 74 75 74 71 68 67 66 63 62 61 59 58 58 59 60 60 59 59 60 59
18 20 22 23 24 25 26 27 30 34 37 38 36 37 42 46 45 44 44 46 48 52 56 61 66 68 67 67 67 67 67 64 60 59 59 58 58 59 62 64 64 63 64 62 59 58 58 59 61 61 61 61 61 63 66 66 65 63 60 60 61 61 67 72 74 76 78 78 72 67 66 66 63 61 59 57 55 55 57 60 61 60 59 58 56
20 22 24 25 25 25 27 29 30 34 37 36 36 38 42 43 43 43 42 45 50 53 55 61 67 70 72 72 69 69 70 68 66 69 73 71 67 66 67 68 69 70 70 67 63 59 57 58 60 61 61 62 61 62 65 67 66 66 64 63 63 64 67 72 76 79 83 80 74 69 67 65 63 62 59 56 54 53 55 58 61 60 58 56 54
22 25 26 26 27 28 29 30 31 33 33 32 33 38 41 41 43 42 42 46 51 52 54 60 67 71 74 74 70 70 71 72 74 78 80 80 78 76 74 73 75 77 75 72 68 63 59 59 60 60 61 63 62 62 66 70 72 71 67 65 65 67 68 72 77 83 85 82 76 72 69 65 62 63 62 57 54 53 54 57 59 59 58 56 54
24 25 26 28 29 30 31 31 31 32 31 29 32 37 39 41 42 43 45 47 50 51 53 58 67 73 76 74 74 75 75 77 81 84 84 84 82 80 79 79 80 80 77 76 74 70 67 65 64 63 61 61 62 65 70 75 78 77 72 68 67 68 69 72 78 83 85 83 79 74 70 67 64 63 63 60 56 54 55 57 59 60 60 58 56
25 25 26 29 32 33 33 33 34 34 32 31 32 35 37 38 39 42 46 48 49 52 53 56 65 74 78 77 77 79 80 81 84 86 86 85 84 84 84 84 84 83 81 80 79 78 75 71 70 71 68 66 67 72 76 79 81 79 75 72 70 69 69 71 77 82 84 84 81 76 73 71 68 64 62 61 58 56 58 60 61 62 62 62 60
25 27 29 31 33 34 34 36 37 36 33 32 33 33 33 33 35 40 45 47 48 51 53 56 63 71 78 78 78 80 82 84 86 88 87 85 85 86 87 87 85 84 82 82 83 82 79 76 75 76 76 74 73 75 77 78 79 80 79 77 73 71 71 72 77 81 83 83 82 79 75 72 70 65 59 57 57 58 60 63 64 64 64 63 62
27 28 30 32 34 35 35 37 39 38 34 33 35 34 31 31 34 40 44 45 47 49 52 54 60 68 76 79 80 81 81 83 88 90 87 85 87 88 87 88 87 85 83 84 85 86 84 84 82 79 80 80 77 76 75 74 74 76 77 75 72 71 72 73 76 80 81 81 80 77 74 71 68 64 57 54 56 59 62 66 67 67 66 65 64
28 30 31 33 35 35 38 40 41 39 35 33 35 35 33 33 36 39 40 43 45 47 48 49 54 63 71 76 81 83 82 84 89 90 88 88 90 90 89 91 92 89 86 84 85 86 86 87 85 82 81 81 80 79 76 74 73 71 71 71 70 69 69 72 75 78 80 80 78 75 73 70 65 62 58 55 57 60 63 67 69 68 67 66 65
28 31 34 36 37 37 39 42 43 40 36 34 34 33 32 34 36 36 37 41 45 47 47 46 49 56 63 71 78 82 86 88 85 84 87 90 91 90 89 90 91 93 92 89 87 87 85 84 84 81 79 78 79 80 77 77 77 74 72 72 70 69 67 68 73 77 79 80 78 76 74 71 67 65 61 58 59 62 65 69 70 68 68 67 65
29 32 35 37 39 40 41 44 46 43 39 37 34 31 30 31 34 35 37 40 44 46 47 45 45 50 55 63 71 78 86 87 78 77 85 92 93 91 88 87 88 90 92 91 90 88 85 84 83 81 79 78 79 81 80 81 81 78 76 74 72 69 66 66 72 77 79 81 80 76 73 71 70 68 63 62 63 66 68 70 69 68 67 67 65
31 34 36 38 41 43 45 48 48 46 43 40 36 32 30 31 33 34 36 39 41 43 46 46 45 49 52 56 62 71 78 79 74 76 85 92 95 93 89 89 88 88 89 90 90 89 86 84 84 82 81 81 81 82 83 84 84 83 80 77 75 72 66 65 72 78 80 81 81 79 75 72 70 70 68 67 67 69 72 72 69 66 67 67 66
34 36 38 40 42 46 50 52 51 49 47 43 38 34 33 35 35 34 37 40 40 40 43 43 43 48 51 53 57 64 71 73 73 79 84 87 92 92 88 89 88 88 90 91 90 89 87 85 84 82 81 81 82 83 83 84 86 85 84 81 78 74 68 65 69 76 81 81 81 80 78 75 74 75 73 71 71 75 78 75 70 67 67 68 68
35 37 40 41 43 48 54 54 52 51 49 45 41 37 37 39 39 36 38 40 39 38 40 39 38 42 48 52 53 57 64 68 70 79 84 84 87 89 88 88 88 87 90 93 94 93 92 89 88 85 82 81 82 84 84 85 86 86 85 84 81 78 72 66 67 75 81 82 81 80 78 77 78 79 77 76 77 80 83 80 74 71 71 71 70
35 36 40 43 45 52 57 55 53 53 51 46 43 41 41 42 43 41 41 41 39 38 39 38 37 38 44 50 51 51 56 60 64 73 82 84 84 86 88 89 90 88 89 93 95 96 95 94 90 87 85 85 83 83 86 89 89 88 87 86 82 79 74 69 68 73 79 83 82 80 79 80 82 83 81 81 81 83 85 85 81 78 78 79 76
36 36 40 44 49 53 55 55 55 56 53 48 44 44 44 46 48 47 45 43 39 37 37 37 36 38 40 47 49 48 51 56 58 66 77 82 83 85 88 93 94 91 89 91 94 96 97 95 91 88 89 89 85 84 86 87 87 87 89 87 82 77 73 69 68 71 79 85 84 81 82 82 82 85 86 87 86 86 89 88 85 83 83 83 81
38 39 41 45 50 53 54 55 58 59 57 52 48 46 46 49 52 49 45 41 38 36 34 34 36 36 38 42 45 45 50 54 57 65 73 78 81 83 87 93 97 93 89 89 91 94 95 95 95 94 93 92 87 85 85 83 82 84 87 84 78 74 71 70 69 72 79 85 85 84 84 83 81 84 90 91 90 89 89 88 86 86 85 85 85
41 41 41 44 49 53 55 57 60 60 59 55 50 48 49 53 55 51 44 41 40 37 33 32 33 34 36 41 42 43 48 51 54 62 70 74 77 80 83 91 97 96 92 91 93 93 93 94 96 95 95 94 90 86 85 83 82 84 87 85 79 75 73 72 72 74 78 82 83 82 83 84 82 82 88 92 90 88 89 87 85 85 86 87 87
44 42 42 44 49 54 56 56 58 59 60 58 53 51 53 57 57 52 47 45 43 39 35 33 33 33 36 41 41 42 46 46 47 54 63 69 72 74 77 85 93 96 95 94 95 95 93 93 94 94 95 96 93 91 92 91 88 86 88 88 85 80 78 78 78 77 77 79 82 82 84 88 87 83 84 88 87 87 88 85 82 82 84 85 85
46 44 45 46 50 54 55 55 55 58 61 61 57 54 57 62 62 57 53 50 46 44 42 40 37 35 37 40 42 43 45 45 43 44 51 60 65 69 73 79 85 92 95 94 96 97 95 94 95 95 95 94 93 94 97 98 96 93 90 90 90 89 86 85 83 82 80 80 83 83 84 89 92 90 87 86 85 86 86 84 82 80 79 81 82
47 47 50 51 52 54 54 53 55 61 65 65 62 59 61 66 67 63 59 56 52 50 50 48 45 41 40 39 41 42 43 44 43 42 44 50 57 64 71 74 78 86 93 93 94 98 96 93 95 96 94 92 92 92 93 95 98 98 95 92 94 94 91 87 86 85 83 83 83 82 83 89 94 92 86 82 81 83 85 85 85 84 83 81 79
49 50 53 53 50 49 51 53 57 64 69 69 67 65 65 68 70 68 64 61 60 58 56 55 53 50 47 44 43 43 42 42 43 43 43 44 50 57 64 70 73 77 85 91 93 95 94 91 92 95 96 94 93 91 90 91 94 97 97 95 94 93 90 90 91 92 92 92 90 87 87 89 90 86 82 80 80 81 81 80 83 87 90 85 79
52 51 51 49 45 44 50 58 63 66 69 70 73 74 71 71 73 71 68 66 65 64 63 61 59 58 56 53 50 48 46 44 42 44 44 44 47 50 54 64 70 70 77 87 90 92 94 90 88 92 95 96 96 94 92 90 90 92 94 94 94 92 89 90 93 94 93 93 91 88 86 85 85 86 87 87 85 81 79 80 83 87 90 87 82
53 50 47 46 44 47 55 63 67 71 72 72 75 76 75 74 74 72 71 69 67 67 68 66 65 63 61 60 58 55 53 50 46 46 46 46 48 47 48 57 63 63 69 76 77 81 91 92 88 88 91 93 96 96 94 93 91 90 90 91 92 93 91 90 92 94 93 91 90 88 87 88 89 91 93 94 92 88 87 89 91 92 90 87 85
52 50 47 46 48 54 60 62 67 74 76 74 74 74 74 75 74 72 71 70 67 68 70 68 67 65 63 62 62 61 59 57 53 50 50 50 50 49 48 51 53 54 59 63 63 68 79 85 84 85 86 86 88 91 93 93 93 93 92 91 91 91 90 90 92 96 99 99 97 96 94 93 92 93 93 95 97 96 93 92 94 95 93 91 89
50 49 48 48 51 56 60 62 66 73 75 74 75 76 75 74 74 73 71 70 68 69 69 68 67 66 63 61 61 62 63 63 60 56 55 53 52 52 50 50 50 50 51 54 56 59 64 69 74 78 81 81 82 84 87 90 90 91 93 93 91 91 90 90 91 93 96 99 98 97 96 95 93 92 93 94 96 97 95 93 94 96 95 93 93
50 50 50 51 55 59 62 65 71 76 75 73 74 74 73 72 73 72 71 72 71 70 69 68 67 66 64 61 59 61 62 64 64 62 60 57 55 54 54 51 50 51 51 50 52 54 56 57 60 66 71 74 76 79 84 88 88 88 89 90 91 91 91 90 90 90 91 92 92 92 93 94 92 92 93 94 93 95 96 96 95 95 93 92 93
49 52 53 56 62 67 69 72 78 80 76 73 71 71 70 70 70 70 71 72 72 70 69 66 64 65 64 63 62 62 63 63 64 64 64 62 58 55 55 53 51 51 51 50 49 51 53 54 56 58 61 64 68 73 80 86 87 87 87 89 89 89 90 90 91 91 91 90 90 90 90 91 90 91 93 93 93 95 96 96 96 95 93 93 93
53 56 58 61 69 76 77 78 81 79 75 72 71 71 71 70 69 69 70 71 71 72 70 66 63 62 63 64 63 63 63 64 64 64 66 67 64 59 55 54 53 51 50 50 49 48 50 53 56 57 58 58 61 65 72 80 86 86 86 88 89 88 88 88 89 90 92 91 91 90 90 88 88 90 91 92 92 93 94 93 93 94 94 95 96
60 63 66 71 76 81 82 82 81 77 74 74 73 71 71 72 71 71 71 70 71 72 71 68 63 63 64 64 62 61 61 63 63 63 64 67 68 66 61 57 55 52 51 50 48 47 48 50 53 56 56 55 56 60 64 71 78 82 82 84 86 86 85 86 86 85 87 89 91 91 91 90 89 90 90 91 91 91 92 93 94 95 95 96 95
64 66 71 76 81 84 85 84 80 77 75 74 72 70 71 73 72 70 70 70 70 69 68 66 64 63 63 61 59 57 58 60 61 61 61 62 66 70 69 66 62 57 52 50 48 47 47 48 50 53 55 54 54 59 62 63 67 73 77 79 80 80 81 83 84 83 82 83 86 90 91 92 92 91 91 92 92 91 90 92 92 94 95 94 93
63 64 69 77 85 88 87 83 79 77 75 72 71 70 73 76 75 71 69 69 68 65 63 63 63 61 60 59 58 57 57 58 59 59 58 59 61 65 70 73 72 66 59 54 50 48 46 47 48 50 51 51 52 57 60 60 61 67 72 72 72 73 76 78 80 81 81 82 82 85 88 91 92 93 93 93 94 94 92 92 91 91 92 93 93
63 65 72 80 84 86 84 81 79 79 78 76 76 77 78 79 80 76 71 69 67 65 62 61 60 59 59 58 57 57 58 60 62 61 60 60 61 62 64 68 72 73 71 66 59 54 51 49 49 49 49 49 50 52 55 55 57 61 64 65 66 69 73 76 78 79 81 83 83 84 85 87 90 91 92 91 92 93 94 93 93 92 92 93 93
65 70 76 82 83 82 82 82 84 86 86 84 83 85 83 82 82 78 72 69 68 65 61 58 56 56 57 56 55 56 59 62 65 64 62 62 63 64 64 64 66 70 74 74 71 65 60 56 53 51 49 49 49 51 53 54 54 56 59 60 63 66 68 71 74 76 78 81 85 86 87 87 88 89 90 89 90 90 92 93 94 93 93 94 94
72 75 79 83 84 83 85 88 90 92 91 88 86 89 91 88 83 76 70 68 68 65 60 57 55 54 53 53 54 56 59 61 62 62 61 61 62 63 64 64 65 66 69 72 73 71 68 64 61 57 53 51 50 50 52 53 55 57 58 59 60 61 62 64 67 70 71 74 77 80 82 84 85 85 85 86 86 87 88 91 92 92 91 91 90
75 77 79 83 86 87 89 92 94 94 94 93 92 92 94 90 82 74 69 67 65 60 56 54 54 54 53 53 54 55 56 56 55 53 53 54 57 60 62 64 65 66 66 69 70 70 69 68 65 62 59 56 55 52 51 51 53 55 57 58 58 59 59 60 61 63 65 68 70 74 77 78 80 83 84 84 85 86 85 85 87 88 89 89 89
76 78 80 84 88 91 94 96 97 97 97 95 95 94 93 88 80 72 66 62 57 52 51 51 53 55 55 56 57 57 55 54 51 49 48 47 49 53 58 62 64 65 66 68 69 70 70 69 67 64 61 60 61 59 57 54 52 52 52 54 56 56 57 56 56 56 56 58 61 64 67 69 74 80 83 83 86 88 87 85 84 85 87 88 88
73 76 79 83 87 92 96 97 96 96 94 94 95 93 87 80 73 66 61 56 54 52 51 52 54 56 58 59 59 58 56 54 53 52 51 49 48 49 52 56 61 64 66 66 67 68 69 68 67 65 63 61 61 61 60 60 58 56 54 53 53 54 55 55 54 54 53 53 53 53 54 57 62 69 76 80 83 86 86 85 83 81 81 83 84
73 74 80 85 88 92 95 96 95 95 95 95 92 86 79 74 70 64 60 56 54 54 53 54 56 57 57 56 55 53 51 50 49 48 48 48 48 48 48 51 56 60 63 66 66 67 67 67 67 66 66 63 62 60 59 60 61 61 60 58 56 55 55 55 56 56 56 55 55 54 53 53 53 56 62 68 74 76 78 79 78 74 71 72 74
80 80 83 88 92 94 95 96 96 96 94 90 84 79 76 75 71 66 62 57 54 53 54 55 55 54 53 51 49 48 47 46 46 46 46 46 46 46 46 47 48 51 54 58 62 64 66 66 66 65 65 63 63 61 60 61 62 65 66 67 66 64 62 60 58 58 58 58 57 57 57 57 56 54 52 54 58 61 63 66 69 69 69 70 72
88 88 88 89 91 90 89 90 91 88 85 80 76 73 71 69 66 64 62 58 55 55 56 56 55 53 51 49 47 46 45 45 45 45 45 45 45 45 45 45 45 45 46 47 50 53 57 59 61 61 62 61 61 60 59 60 61 63 65 67 70 72 72 71 69 66 64 63 62 61 61 60 59 59 57 54 53 53 54 55 57 59 60 63 66
90 91 90 89 89 87 85 85 84 80 76 73 70 67 64 61 58 59 59 59 59 59 59 58 56 53 51 49 47 45 45 44 44 43 43 43 43 42 43 44 45 46 46 45 45 45 46 47 48 50 53 55 56 59 59 60 59 59 59 61 63 65 69 72 75 75 74 72 71 70 69 67 64 64 64 63 60 59 58 57 55 54 53 54 55
88 90 90 89 87 85 82 80 77 74 71 68 65 62 60 58 57 57 60 61 62 62 60 58 55 51 49 47 45 44 43 42 40 40 39 39 39 38 39 39 41 43 44 46 45 45 44 42 42 42 42 43 46 51 56 60 61 62 61 61 60 60 61 63 67 70 73 75 75 75 74 74 74 73 72 69 67 68 70 70 66 61 58 55 53
89 89 89 87 84 82 80 77 74 70 67 64 62 60 59 57 56 56 57 58 58 58 56 53 50 47 44 42 41 40 39 39 38 38 37 37 37 36 36 36 37 39 41 42 43 42 42 42 42 41 41 40 40 42 45 50 56 60 62 62 61 62 62 62 63 65 68 71 74 74 74 74 76 78 78 77 75 75 76 77 75 71 66 63 59
85 84 84 82 81 78 76 74 71 69 67 64 61 56 52 50 49 48 49 50 50 50 48 45 43 40 39 37 37 37 36 36 35 35 34 34 33 33 34 34 34 35 36 37 37 37 37 37 38 38 38 38 38 38 39 41 45 51 55 57 58 58 59 60 61 62 64 67 70 71 72 73 74 76 78 80 81 80 80 80 79 76 73 69 66
81 80 79 78 76 75 73 71 70 68 63 57 50 44 41 41 42 42 43 44 43 42 40 39 38 37 36 34 34 33 32 32 31 30 30 29 29 29 30 31 31 31 31 31 31 32 32 33 33 34 34 34 35 35 35 35 36 38 41 44 48 49 51 53 55 57 61 64 67 68 70 72 74 76 79 81 82 83 83 83 82 82 79 76 71
75 75 74 72 71 70 69 66 62 56 49 42 38 37 38 39 39 38 37 36 36 35 35 35 35 34 33 32 31 30 30 29 29 28 28 27 26 25 25 25 26 27 27 27 28 28 29 29 29 29 29 30 30 30 30 30 30 30 31 32 34 36 39 42 44 48 53 60 66 70 72 72 73 74 77 80 82 84 84 84 84 85 86 85 82
67 66 65 65 64 62 60 55 49 43 39 37 37 38 37 36 34 33 33 33 33 33 33 33 32 32 32 31 31 31 30 30 29 28 27 26 24 22 20 19 20 20 21 22 23 23 24 23 23 23 22 23 22 22 23 23 23 22 23 24 25 25 27 29 32 34 36 42 49 57 64 69 72 72 73 77 81 84 85 86 87 88 89 91 92
60 60 60 59 56 53 49 45 41 39 38 37 36 34 33 32 33 33 33 34 33 34 34 34 33 33 33 33 33 32 31 31 30 28 26 24 22 18 15 14 14 16 16 17 18 19 20 19 19 19 18 18 17 16 15 15 14 14 15 16 17 17 19 20 22 24 25 26 30 35 41 48 56 61 64 69 77 84 87 86 87 86 87 89 92